Voltar ao catálogo

ESSAIM-2

AtivoMilitarSSO
NORAD 28495·PAYLOAD·🇫🇷 France

Lançado Dec 18, 2004 de Guiana Space Centre

Loading…

Próximas Passagens (próximas 24 horas)

TLE

AtualizadoSource: Space-Track

Época: Sep 14, 2026, 04:45 UTC

1 28495U 04049D   26257.19820867  .00001021  00000-0  10873-3 0  9994
2 28495  98.2187 167.9487 0001846 130.4808 229.6571 14.91265215173807

Acompanhe ESSAIM-2 em tempo real com AllMySat

Download on the App Store